Location: downtown San Diego
(32.7310°N, 117.1990°W)
Time: 15:46:47
(UTC-07:00)

SL-16 R/B - Pass Details

Date: 14 June 2018
Orbit: 840 x 850 km, 71.0° (Epoch: 18 September)

Event Time Altitude Azimuth Distance (km) Brightness Sun altitude
Rises 21:03:31 0° 335° (NNW) 3,408 6.6 -12.3°
Reaches altitude 10° 21:05:59 10° 332° (NNW) 2,471 5.8 -12.7°
Maximum altitude 21:11:34 61° 253° (WSW) 957 2.6 -13.6°
Enters shadow 21:17:03 10° 174° (S) 2,435 4.2 -14.5°
